Location: Kikino
(54.4440°N, 112.0940°W)
Time: 11:59:31
(UTC+00:00)

Vanguard 3 - Pass Details

Date: 21 May 2024
Orbit: 509 x 3231 km, 33.3° (Epoch: 16 June)

Event Time Altitude Azimuth Distance (km) Brightness Sun altitude
Rises 03:58:22 0° 233° (SW) 4,830 11.3 -3.2°
Reaches altitude 10° 04:01:39 10° 223° (SW) 4,205 10.8 -3.6°
Maximum altitude 04:11:36 30° 168° (SSE) 3,729 10.1 -4.6°
Drops below altitude 10° 04:25:37 10° 117° (ESE) 5,972 11.0 -6.0°
Sets 04:31:28 0° 109° (ESE) 7,151 11.4 -6.6°
